Theta_e
301 301 304 309 314 322 323 324 326 327 327 326 326 324 323 321 320 317 314 311 303 300 302 301 300 300 298 295 291 291 288 288
299 300 303 308 311 316 323 324 325 325 326 326 324 323 321 319 315 314 310 303 300 300 300 300 299 296 294 292 290 288 288 287
298 301 305 313 313 318 324 324 324 324 325 323 322 319 318 313 312 305 302 300 299 300 299 298 293 293 289 288 287 288 288 288
299 302 306 313 318 320 321 324 323 323 322 320 316 312 307 307 303 300 300 299 299 299 297 293 290 290 288 288 288 287 288 288
298 300 303 309 313 316 319 321 320 319 315 314 305 303 301 299 300 300 299 297 298 293 291 292 290 288 288 287 287 288 287 287
295 298 300 302 307 308 313 314 313 311 304 302 300 300 300 299 298 297 298 294 290 292 290 287 288 287 288 287 287 287 286 287
294 296 297 298 300 299 300 302 303 301 301 300 299 299 299 298 297 298 291 292 292 288 288 288 287 287 287 286 286 286 286 285
293 293 295 297 298 301 299 300 300 300 300 298 298 298 297 297 297 293 293 290 287 288 288 287 287 286 286 286 286 285 285 285
291 292 293 294 296 296 297 299 300 298 298 298 297 297 297 295 295 292 287 287 287 287 287 287 287 286 286 286 285 285 285 286
291 291 292 293 295 297 297 299 298 297 297 296 298 297 295 294 288 287 287 287 287 287 286 286 287 286 286 285 285 286 286 285
292 293 292 294 297 298 297 298 296 296 297 298 297 294 288 287 287 287 288 287 286 285 285 286 286 286 286 286 286 286 285 283
295 296 295 297 299 298 297 297 296 297 294 290 287 287 288 288 288 287 287 286 285 286 285 286 286 286 286 286 285 284 283 281
297 297 297 297 298 297 296 294 290 287 287 287 287 287 288 288 287 286 286 287 286 286 286 285 285 286 286 285 284 281 279 279
298 298 297 298 297 293 288 287 288 287 287 287 287 287 288 289 288 288 287 286 286 286 286 285 286 286 284 282 280 279 279 278
297 296 294 291 289 289 288 288 288 288 288 287 287 289 290 290 288 287 286 286 286 285 286 287 285 284 281 279 279 278 278 277
298 294 288 288 288 288 287 287 288 288 288 289 293 293 291 289 287 286 286 284 285 286 286 284 283 280 279 279 279 278 277 277
296 297 289 288 288 288 288 288 288 289 291 292 292 292 292 291 286 284 285 285 286 286 284 282 280 279 279 278 278 277 277 277
296 296 294 291 290 287 287 287 287 289 291 290 290 291 291 286 286 287 286 286 285 284 282 280 279 279 279 279 278 277 277 276
296 295 295 294 294 293 293 287 287 289 288 288 291 290 286 285 285 286 286 285 284 281 279 279 279 279 279 278 277 276 275 275
296 295 294 294 294 293 292 290 290 292 291 291 290 286 285 285 285 285 284 283 280 279 279 279 279 279 278 277 276 275 274 273
Wind_Speed
35 29 24 19 22 29 40 44 47 46 46 48 46 45 47 48 44 42 36 32 31 28 25 25 24 20 21 21 17 13 14 13
35 29 26 22 26 34 39 43 45 42 46 48 47 48 47 47 42 40 36 33 30 30 30 25 26 25 18 16 16 14 13 11
28 27 19 17 21 30 39 43 42 43 44 45 46 47 47 45 41 37 35 35 34 30 28 28 26 20 17 16 14 11 9 8
20 14 9 12 21 31 38 43 43 48 45 45 46 44 41 40 38 40 38 37 34 33 29 26 22 18 16 13 12 9 7 5
10 4 9 16 25 34 41 41 42 43 41 42 38 36 37 43 45 45 40 36 34 32 27 22 20 17 14 12 10 8 6 4
3 5 11 18 26 33 38 40 42 41 39 39 38 42 48 47 44 41 41 36 30 29 25 21 17 15 12 11 8 6 4 1
9 11 16 20 25 30 33 36 36 38 41 47 53 53 52 46 45 42 37 33 28 26 23 21 17 14 12 9 6 4 1 2
14 19 24 30 33 32 34 36 41 47 52 53 54 51 50 47 42 38 33 29 26 24 21 19 16 13 10 7 4 2 2 5
22 24 28 33 38 45 46 49 53 56 56 52 50 50 46 42 40 35 30 27 24 22 19 17 14 11 8 5 3 2 5 7
25 29 33 38 40 44 49 54 55 53 50 48 45 45 42 39 35 32 28 25 22 20 18 14 13 9 6 4 3 4 6 7
28 32 36 38 43 50 52 49 48 48 45 43 41 39 37 35 32 29 24 23 22 20 15 13 10 8 6 3 3 4 6 9
30 33 37 41 41 41 42 44 42 41 40 38 36 34 31 30 27 25 23 22 19 15 13 10 8 6 3 2 3 5 9 10
29 27 27 30 35 40 40 37 35 34 34 32 30 29 28 25 24 21 18 16 14 11 11 8 6 3 2 4 8 9 9 10
25 28 27 26 26 32 33 31 31 31 30 29 27 25 22 20 20 18 15 12 12 9 7 5 3 2 5 8 9 9 11 13
20 23 24 23 24 26 28 26 27 28 27 26 24 23 20 16 15 13 12 10 8 7 5 2 1 4 5 6 8 10 10 11
16 21 22 20 22 22 22 22 23 24 25 24 21 17 15 15 13 11 12 10 7 5 3 2 4 5 6 7 10 13 14 15
16 20 21 19 19 20 18 16 15 19 20 18 15 11 11 11 14 14 9 7 5 2 1 1 2 4 6 9 12 14 16 18
13 14 18 20 20 19 17 13 12 13 15 13 8 8 8 10 9 9 8 5 4 3 1 0 1 4 9 12 14 15 17 19
12 14 14 15 16 16 16 16 14 11 12 9 7 6 7 7 6 5 3 4 4 4 3 1 4 7 10 12 14 16 18 20
13 14 14 14 15 15 15 15 13 14 12 10 9 9 8 7 7 7 6 4 3 2 1 2 4 8 11 14 15 17 18 21
Wind_Direction
311 310 286 252 233 215 224 227 216 212 216 217 217 216 216 215 211 209 197 199 192 180 172 156 148 145 126 116 126 139 149 151
307 306 288 253 233 218 220 213 208 217 213 217 214 214 209 208 200 193 190 184 171 160 151 147 139 117 119 132 144 152 152 143
306 304 298 262 225 209 208 200 203 216 215 211 211 206 204 195 185 181 169 157 151 147 147 133 115 129 146 146 145 148 133 130
312 304 254 224 196 198 194 197 202 203 205 202 200 196 184 175 166 153 148 147 146 147 126 122 133 145 146 146 141 134 140 134
310 255 180 170 174 180 180 187 194 192 193 189 177 170 160 147 146 141 142 143 133 121 129 139 150 144 143 139 140 148 141 133
16 146 151 158 163 167 169 175 180 179 169 163 156 147 140 140 139 137 139 127 129 136 146 141 140 140 138 144 145 144 131 132
87 117 131 136 144 146 150 153 162 152 147 142 142 141 138 137 141 135 128 135 145 147 141 138 140 144 145 142 135 139 145 20
87 112 123 127 134 134 137 139 139 138 136 138 138 136 137 139 132 129 137 146 144 142 142 141 144 145 137 131 155 112 37 358
87 108 118 126 130 135 135 135 135 134 135 138 139 138 135 130 128 140 143 145 144 141 145 146 139 140 144 132 117 53 5 343
98 107 119 124 129 130 132 131 131 132 134 137 138 131 128 133 140 141 142 143 142 144 146 144 138 133 124 98 49 6 339 330
110 116 119 123 128 127 125 128 129 133 136 133 127 131 140 138 137 138 143 145 149 145 143 135 130 106 79 52 357 338 334 331
109 111 117 123 124 123 125 124 128 129 128 134 138 135 134 135 137 143 149 146 145 140 131 119 102 97 84 357 335 341 333 327
105 106 111 116 121 123 123 125 130 132 131 129 131 136 136 138 138 143 144 141 134 130 122 119 119 97 3 345 345 343 340 339
103 106 109 113 122 126 123 129 129 131 131 134 137 134 134 139 139 142 138 133 125 127 125 119 102 20 358 346 351 353 353 344
118 113 115 121 126 122 127 133 136 135 135 137 139 139 137 140 138 133 127 127 131 135 133 129 54 7 347 353 356 357 352 342
130 122 120 128 129 129 134 140 144 143 144 145 142 140 142 142 131 132 144 146 143 144 138 61 9 1 0 352 349 352 353 348
134 140 130 132 131 134 138 144 152 148 147 149 148 148 148 150 150 155 161 154 148 136 129 28 14 358 349 349 353 348 341 338
135 137 141 151 150 148 146 152 161 158 156 156 157 153 153 155 160 162 162 161 172 186 209 205 319 1 352 344 339 335 333 331
140 143 145 150 153 154 156 155 165 171 169 170 168 160 158 161 165 163 164 184 188 193 187 70 12 345 334 328 328 327 325 326
145 150 152 154 158 159 165 168 178 177 180 176 182 185 184 192 206 215 213 207 213 190 127 348 322 323 322 318 322 322 324 324